Mitchell, SD

9:26 AM CDT on April 23, 2018 (GMT -0500)
Mitchell Municipal

Weather History for KMHE - October, 2011

Change the Weather History Date:

Wednesday, October 12, 2011

  Actual Average Record
Temperature  
Mean Temperature 61 °F 51 °F  
Max Temperature 72 °F 64 °F 87 °F (1956)
Min Temperature 49 °F 39 °F 14 °F (1917)
Degree Days  
Heating Degree Days 4 14  
Month to date heating degree days 14 144  
Since 1 July heating degree days 189 302  
Cooling Degree Days 0 0  
Month to date cooling degree days 37 7  
Year to date cooling degree days 994 824  
Growing Degree Days 12 (Base 50)    
Moisture  
Dew Point 48 °F    
Average Humidity 64    
Maximum Humidity 93    
Minimum Humidity 35    
Precipitation  
Precipitation 0.00 in 0.06 in 1.10 in (1914)
Month to date precipitation 2.19 0.76  
Year to date precipitation 19.11 19.43  
Snow  
Snow 0.00 in - 0.50 in (2009)
Month to date snowfall 0.0  
Since 1 July snowfall 0.0  
Since 1 September snowfall 0.0  
Snow Depth 0.00 in    
Sea Level Pressure  
Sea Level Pressure 29.74 in    
Wind  
Wind Speed 9 mph (WNW)    
Max Wind Speed 23 mph    
Max Gust Speed 32 mph    
Visibility 10 miles    
Events      
T = Trace of Precipitation, MM = Missing Value Source: NWS Daily Summary

Daily Weather History Graph

Daily Weather History Graph

Search for Another Location

Airport or City:

Astronomy

Oct. 12, 2011 Rise Set
Actual Time 7:42 AM CDT 6:54 PM CDT
Civil Twilight 7:13 AM CDT 7:22 PM CDT
Nautical Twilight 6:40 AM CDT 7:56 PM CDT
Astronomical Twilight 6:07 AM CDT 8:29 PM CDT
Moon 6:52 PM CDT (10/12) 8:22 AM CDT (10/12)
Length of Visible Light 12h 09m
Length of Day
11h 11m
Full, 100% of the Moon is Illuminated
Oct 12
Full
Oct 19
Last Quarter
Oct 26
New
Nov 2
First Quarter
Nov 10
Full

Hourly Weather History & Observations

Time (CDT) Temp. Dew Point Humidity Pressure Visibility Wind Dir Wind Speed Gust Speed Precip Events Conditions
12:53 AM 60.1 °F 53.1 °F 78% 29.68 in 10.0 mi SSW 3.5 mph - N/A   Mostly Cloudy
2:53 AM 57.0 °F 54.0 °F 89% 29.68 in 10.0 mi ESE 5.8 mph - N/A   Overcast
3:53 AM 57.0 °F 53.1 °F 87% 29.68 in 10.0 mi South 3.5 mph - N/A   Clear
4:53 AM 55.9 °F 53.1 °F 90% 29.68 in 10.0 mi South 3.5 mph - N/A   Mostly Cloudy
5:53 AM 54.0 °F 52.0 °F 93% 29.70 in 10.0 mi SSE 3.5 mph - N/A   Mostly Cloudy
6:53 AM 54.0 °F 52.0 °F 93% 29.73 in 10.0 mi WNW 3.5 mph - N/A   Mostly Cloudy
7:29 AM 55.4 °F 53.6 °F 94% 29.72 in 10.0 mi Calm Calm - N/A   Overcast
7:53 AM 55.0 °F 53.1 °F 93% 29.72 in 10.0 mi South 3.5 mph - N/A   Overcast
8:53 AM 54.0 °F 52.0 °F 93% 29.74 in 6.0 mi West 5.8 mph - N/A   Overcast
9:53 AM 57.0 °F 53.1 °F 87% 29.74 in 8.0 mi WNW 8.1 mph - N/A   Mostly Cloudy
10:53 AM 64.9 °F 48.9 °F 56% 29.75 in 10.0 mi NW 12.7 mph - N/A   Clear
11:53 AM 64.9 °F 48.9 °F 56% 29.76 in 10.0 mi WNW 16.1 mph 23.0 mph N/A   Clear
1:53 PM 66.0 °F 46.9 °F 50% 29.76 in 10.0 mi NW 16.1 mph 24.2 mph N/A   Partly Cloudy
2:53 PM 70.0 °F 46.9 °F 44% 29.75 in 10.0 mi NW 18.4 mph 25.3 mph N/A   Clear
3:53 PM 70.0 °F 45.0 °F 41% 29.75 in 10.0 mi North 13.8 mph - N/A   Clear
4:53 PM 71.1 °F 42.1 °F 35% 29.74 in 10.0 mi NNW 18.4 mph 25.3 mph N/A   Scattered Clouds
5:53 PM 69.1 °F 41.0 °F 36% 29.76 in 10.0 mi NNW 13.8 mph 23.0 mph N/A   Partly Cloudy
6:53 PM 63.0 °F 41.0 °F 45% 29.78 in 10.0 mi NNW 8.1 mph - N/A   Clear
7:53 PM 59.0 °F 42.1 °F 53% 29.80 in 10.0 mi WNW 6.9 mph - N/A   Clear
9:53 PM 55.0 °F 41.0 °F 59% 29.82 in 10.0 mi WNW 9.2 mph - N/A   Clear
10:53 PM 54.0 °F 41.0 °F 62% 29.82 in 10.0 mi WNW 9.2 mph - N/A   Clear
11:53 PM 53.1 °F 42.1 °F 66% 29.82 in 10.0 mi WNW 9.2 mph - N/A   Clear